Location: B�hl
(48.6968°N, 8.1352°E)
Time: 01:11:18
(UTC+00:00)

Cosmos 2221 Rocket - Pass Details

Date: 08 March 2021
Orbit: 621 x 647 km, 82.5° (Epoch: 12 April)

Event Time Altitude Azimuth Distance (km) Brightness Sun altitude
Rises 18:52:02 0° 352° (N) 2,916 7.3 -15.6°
Reaches altitude 10° 18:54:17 10° 356° (N) 2,007 6.4 -15.9°
Maximum altitude 18:58:42 64° 78° (ENE) 697 3.5 -16.6°
Enters shadow 19:02:13 16° 158° (SSE) 1,656 5.4 -17.2°
